Regional Weather Roundup
Issued by NWS

Home | Current Version | Previous Version | Text Only | Print | Product List | Glossary Off
Versions: 1 2 3 4 5 6 7 8 9 10 11 12 13 14 15 16 17 18 19 20 21 22 23 24 25 26 27 28 29 30 31 32 33 34 35 36 37 38 39 40 41 42 43 44 45 46 47 48 49 50

000
ASUS43 KMKX 182111
RWRWI

WISCONSIN REGIONAL WEATHER ROUNDUP
NATIONAL WEATHER SERVICE MILWAUKEE/SULLIVAN WI
400 PM CDT FRI AUG 18 2017

NOTE: "FAIR" INDICATES FEW OR NO CLOUDS BELOW 12,000 FEET WITH NO
SIGNIFICANT WEATHER AND/OR OBSTRUCTIONS TO VISIBILITY.

WIZ001-002-006>008-014>016-023>028-182200-
NORTHWEST WISCONSIN

CITY           SKY/WX    TMP DP  RH WIND       PRES   REMARKS
SUPERIOR ARPT    N/A     71  65  81 S5        29.83F
ASHLAND        PTSUNNY   71  60  68 SW6       29.85S
HAYWARD        CLOUDY    70  59  68 CALM      29.87F
SIREN          CLOUDY    68  63  82 SW7       29.88F
CUMBERLAND     CLOUDY    66  59  77 W8        29.89S
RICE LAKE      CLOUDY    69  62  79 SW7       29.89F
CHETEK         CLOUDY    70  63  78 W3        29.88S
LADYSMITH      CLOUDY    70  60  70 W7        29.89S
EAU CLAIRE     CLOUDY    70  62  76 W12       29.87S
MENOMONIE      CLOUDY    69  63  82 SW9       29.89S
NEW RICHMOND   CLOUDY    68  61  79 SW8       29.90S
OSCEOLA        CLOUDY    71  64  78 W8        29.92S
$$

WIZ003>005-009-010-017-018-182200-
NORTH CENTRAL WISCONSIN

CITY           SKY/WX    TMP DP  RH WIND       PRES   REMARKS
MANITOWISH WTR CLOUDY    67  56  67 NW9       29.86S
ARBOR VITAE    CLOUDY    67  55  66 NW8       29.86R
WOODRUFF       CLOUDY    67  55  66 NW8       29.86R
RHINELANDER    CLOUDY    70  58  65 W7        29.86R
EAGLE RIVER    PTSUNNY   69  53  56 NW10      29.85R
LAND O LAKES   PTSUNNY   67  53  60 NW10G16   29.86S
PHILLIPS       CLOUDY    69  57  67 NW7       29.87S
TOMAHAWK         N/A     67  56  68 W8        29.86S
MEDFORD        MOSUNNY   65  58  78 W7        29.87S
MERRILL        PTSUNNY   68  59  73 NW6       29.86R
$$

WIZ029-030-035-036-043>047-182200-
CENTRAL WISCONSIN

CITY           SKY/WX    TMP DP  RH WIND       PRES   REMARKS
WAUSAU         CLOUDY    68  59  73 W12       29.83S
MOSINEE        CLOUDY    68  57  68 W12G17    29.86F
MARSHFIELD     CLOUDY    68  58  70 NW10      29.86S
STEVENS POINT  CLOUDY    68  58  72 NW6       29.86S
WAUPACA        CLOUDY    73  58  59 NW13      29.84S
WAUTOMA        MOSUNNY   74  59  59 W15G21    29.85S
WISC RAPIDS    CLOUDY    71  60  68 NW10      29.87S
CAMP DOUGLAS   CLOUDY    70  61  73 NW8       29.88R
$$

WIZ011>013-019>022-031-037>040-048>050-182200-
NORTHEAST WISCONSIN

CITY           SKY/WX    TMP DP  RH WIND       PRES   REMARKS
ANTIGO         CLOUDY    68  57  68 NW10      29.84S
SHAWANO        CLOUDY    71  59  66 W9        29.82R
OCONTO         CLOUDY    71  60  67 W10       29.79S
STURGEON BAY   CLOUDY    70  59  68 W8        29.80F
GREEN BAY      CLOUDY    72  64  76 W8        29.81S
MANITOWOC      CLOUDY    71  59  65 W8        29.82S
APPLETON       PTSUNNY   73  55  53 W15       29.82S
CLINTONVILLE   CLOUDY    72  55  56 NW12      29.82S
OSHKOSH        PTSUNNY   74  60  61 NW10      29.82F
$$

WIZ032>034-041-042-053>061-182200-
SOUTHWEST WISCONSIN

CITY           SKY/WX    TMP DP  RH WIND       PRES   REMARKS
LA CROSSE      CLOUDY    73  63  70 W8        29.89S
SPARTA         CLOUDY    69  62  77 W9        29.90S
VIROQUA        CLOUDY    69  62  79 W8        29.92S
BOSCOBEL       LGT RAIN  74  60  61 NW6       29.90R
PRAIRIE DU CHI CLOUDY    72  58  62 NW8       29.90S
PLATTEVILLE    MOSUNNY   76  64  68 NW9       29.90S
$$

WIZ056-057-062-063-064-067-068-182200-
SOUTH CENTRAL WISCONSIN

CITY           SKY/WX    TMP DP  RH WIND       PRES   REMARKS
REEDSBURG      CLOUDY    72  58  61 NW9       29.87S
BARABOO/DELLS  CLOUDY    72  55  56 NW10      29.88R
LONE ROCK      CLOUDY    74  62  66 NW10      29.88S
MINERAL POINT  CLOUDY    75  63  64 NW9       29.90S
MADISON        PTSUNNY   74  59  59 NW9       29.86R
MIDDLETON      CLOUDY    74  59  58 W8        29.88R
WATERTOWN      PTSUNNY   76  61  60 W9        29.85R
MONROE         MOSUNNY   77  59  53 W13       29.88S
JANESVILLE     PTSUNNY   77  61  57 W9        29.86S
$$

WIZ051-052-058>065-066-070>072-182200-
SOUTHEAST WISCONSIN

CITY           SKY/WX    TMP DP  RH WIND       PRES   REMARKS
MILWAUKEE      PTSUNNY   80  59  48 NW10G21   29.83S HX  81
WAUKESHA       PTSUNNY   75  59  57 W14       29.86S
MILWAUKEE/TIMM CLOUDY    75  55  50 W9G16     29.85S
RACINE         PTSUNNY   77  62  59 W10       29.86R
KENOSHA        PTSUNNY   79  62  56 W13       29.85S HX  80
FOND DU LAC    PTSUNNY   76  58  53 W15       29.83S
SHEBOYGAN      MOSUNNY   74  62  66 W12G18    29.82F
WEST BEND      CLOUDY    73  61  64 NW9       29.83F
JUNEAU         MOSUNNY   73  60  63 W5        29.86R
$$

LSZ147-162-182200-
LAKE SUPERIOR

STATION/POSITION TIME  TEMP    WIND        PRES    WAVE
                       AIR SEA DIR/SP/G            HT/PER
                 (UTC) (F)     (DEG/KT/KT) (MB)    (FT/S)
W MID LAKE BUOY  2050   61 60  250/ 12/ 14 1009.2R   2/ 3
DEVILS ISLAND    2100   65     210/  8/ 10 1009.9F
SAXON HARBOR     2040   72      70/  2/  3 1010.2F
$$

LMZ867-665-643>646-182200-
LAKE MICHIGAN

STATION/POSITION TIME  TEMP    WIND        PRES    WAVE
                       AIR SEA DIR/SP/G            HT/PER
                 (UTC) (F)     (DEG/KT/KT) (MB)    (FT/S)
S GREEN BAY BUOY 2100   71 71  270/ 10/ 14 1008.7
N MID LAKE BUOY  2050   66 67  290/ 12/ 14 1008.6R   3/ 4
NORTHPORT PIER   2040   70     310/ 11/ 17 1008.5R
KEWAUNEE LAKESHO 2048   72     280/  7/ 11 1008.4R
SHEBOYGAN LAKESH 2100   71     290/ 12/ 15 1009.3F
PORT WASHINGTON  2040   77     280/  7/ 11 1010.8S
ATWATER BUOY     2009   74 71  270/ 10/ 12 1010.5F
MILWAUKEE LAKESH 2050   75     270/  8/ 10   N/A
S MID LAKE BUOY  2050   71 71  290/  6/  8 1010.7R   2/ 5
KENOSHA   LAKESH 2100   76     290/ 11/ 15 1010.2
$$

TC  - TEMPERATURE IN CELSIUS
VSB - VISIBILITY IN STATUTE MILES
WCI - WIND CHILL INDEX
HX  - HEAT INDEX





USA.gov is the U.S. government's official web portal to all federal, state and local government web resources and services.